Details From LEVT - Vitoria
To LEZG - Zaragoza AB
Flight Number -
Tags generated
Created
Modified
Stats Distance 104 nm / 193 km
Max Altitude 11,300 ft / 3,444 m
Waypoints 3
Social Downloads 0
Likes 0
Share VATSIM

Download

Looking for another format? Having issues loading an existing format? Contact us
Advertisement - Login to hide

Notes

Basic altitude profile: - Ascent Rate: 1800ft/min - Ascent Speed: 250kts - Cruise Altitude: 30000ft - Cruise Speed: 300kts - Descent Rate: 1800ft/min - Descent Speed: 240kts Options: - Use NATs: yes - Use PACOTS: yes - Use low airways: yes - Use high airways: yes

Route

LEVT ALEPO LEZG

ID Type Via Altitude Latitude Longitude Leg Dist Tot Dist Heading (true) Name
O LEVT APT - 0 ft / 0 m 42.88285˚ -2.72446˚ - 0 nm - Vitoria
ALEPO FIX - 11,300 ft / 3,444 m 42.34368˚ -1.96333˚ 46 nm 46 nm 134° / 134° -
O LEZG APT - 0 ft / 0 m 41.66703˚ -1.04356˚ 57 nm 104 nm 134° / 135° Zaragoza AB

Altitude Profile

Advertisement - Login to hide

LEVT

Details ICAO LEVT (VIT)
Name Vitoria
Region Spain
Timezone Europe/Madrid (UTC+2.0)
Stats Elevation 1,682 ft / 513 m (AMSL)
Location 42.882847° -2.724460°
Runways 1
Magnetic Variation 0.495° W

METAR

LEVT 202330Z 23002KT 9999 FEW045 BKN070 12/11 Q1014

Decode

TAF

TAF LEVT 202300Z 2100/2124 VRB03KT 9999 SCT040 TX24/2114Z TN07/2107Z PROB40 TEMPO 2103/2106 0350 FG VV001 TEMPO 2112/2121 VRB15G30KT 3000 SHRA TS SCT030TCU SCT040CB

Decode

Departure Runways

ID Width Length Bearing (true) Bearing (mag) Surface Threshold Offset Overrun Length
04 148 ft / 45 m 11,481 ft / 3,500 m 35.83° 36.32° Asphalt 0 ft / 0 m 164 ft / 50 m
22 148 ft / 45 m 11,481 ft / 3,500 m 215.85° 216.34° Asphalt 0 ft / 0 m 164 ft / 50 m

LEZG

Details ICAO LEZG (ZAZ)
Name Zaragoza AB
Region Spain
Timezone Europe/Madrid (UTC+2.0)
Stats Elevation 862 ft / 263 m (AMSL)
Location 41.667030° -1.043559°
Runways 2
Magnetic Variation 0.040° E

METAR

LEZG 202330Z 10004KT 9999 FEW075 17/12 Q1013

Decode

TAF

TAF TAF LEZG 202300Z 2100/2124 12007KT 9999 SCT030 TX27/2113Z TN14/2106Z PROB30 TEMPO 2100/2107 4000 BR BKN013 TEMPO 2112/2118 FEW030CB BECMG 2112/2115 25018G30KT BECMG 2120/2122 VRB03KT PROB40 TEMPO 2112/2121 4000 TSRA SCT030CB BKN040

Decode

Destination Runways

ID Width Length Bearing (true) Bearing (mag) Surface Threshold Offset Overrun Length
12L 148 ft / 45 m 9,934 ft / 3,028 m 120.12° 120.08° Asphalt 0 ft / 0 m 984 ft / 300 m
12R 148 ft / 45 m 12,181 ft / 3,713 m 120.10° 120.06° Asphalt 0 ft / 0 m 984 ft / 300 m
30L 148 ft / 45 m 12,181 ft / 3,713 m 300.12° 300.08° Asphalt 0 ft / 0 m 984 ft / 300 m
30R 148 ft / 45 m 9,934 ft / 3,028 m 300.14° 300.10° Asphalt 0 ft / 0 m 607 ft / 185 m

Approach Navaids

Runway Type Ident Frequency Range Bearing (true) Bearing (mag) Slope Elevation
30R Localiser IZZA 109.50 MHz 18 nm / 33 km 300.12° 300.07° - 862 ft / 263 m (AMSL)
30R Glidescope IZZA 109.50 MHz 10 nm / 19 km 300.13° 300.09° 2.50° 862 ft / 263 m (AMSL)

Popular Alternatives